Tracking 20621 objects as of 1-Apr-2020
HD Live streaming from Space Station
objects crossing your sky now

STARLINK-1195

Track STARLINK-1195 now!
10-day predictions
STARLINK-1195 is classified as:


NORAD ID: 45102
Int'l Code: 2020-006BK
Perigee: 381.2 km
Apogee: 392.5 km
Inclination: 53.0 °
Period: 92.1 minutes
Semi major axis: 6757 km
RCS: Unknown
Launch date: January 29, 2020
Source: United States (US)
Launch site: AIR FORCE EASTERN TEST RANGE (AFETR)
aabbcc
Your satellite tracking list
Your tracking list is empty




NASA's NSSDC Master Catalog

Two Line Element Set (TLE):
1 45102U 20006BL  20091.91667824 +.00036488 +00000-0 +40211-3 0  9995
2 45102 053.0013 286.8828 0008353 322.2887 213.0802 15.62742627010165
Source of the keplerian elements: AFSPC